EST,Max TemperatureF,Mean TemperatureF,Min TemperatureF,Max Dew PointF,MeanDew PointF,Min DewpointF,Max Humidity, Mean Humidity, Min Humidity, Max Sea Level PressureIn, Mean Sea Level PressureIn, Min Sea Level PressureIn, Max VisibilityMiles, Mean VisibilityMiles, Min VisibilityMiles, Max Wind SpeedMPH, Mean Wind SpeedMPH, Max Gust SpeedMPH,PrecipitationIn, CloudCover, Events, WindDirDegrees
2012-1-1,46,38,29,37,28,20,92,74,56,30.01,29.83,29.55,10,6,1,35,19,46,0.11,7,Rain-Snow,266
2012-1-2,30,26,22,25,19,16,88,82,75,30.30,30.09,29.98,9,2,0,25,17,32,0.25,8,Fog-Snow,301
2012-1-3,24,22,19,18,13,6,84,68,52,30.41,30.30,30.13,10,6,1,22,11,26,0.02,6,Snow,300
2012-1-4,36,29,21,27,20,11,75,64,52,30.13,30.02,29.93,10,10,10,17,10,21,0.00,1,,250
2012-1-5,43,33,23,32,25,19,88,73,57,30.05,29.93,29.78,10,10,10,20,9,25,0.00,0,,215
2012-1-6,52,45,38,36,32,30,79,65,50,29.77,29.74,29.70,10,10,10,17,11,22,0.00,0,,214
2012-1-7,42,34,25,33,27,21,81,69,57,30.25,30.02,29.76,10,10,10,18,8,22,0.00,3,,297
2012-1-8,40,32,24,27,25,20,92,76,59,30.40,30.33,30.26,10,9,5,10,2,12,0.00,1,,194
2012-1-9,44,34,24,27,24,21,85,67,49,30.30,30.12,29.98,10,10,9,18,9,25,0.00,0,,216
2012-1-10,49,37,25,31,28,22,85,68,50,30.09,29.99,29.86,10,10,9,15,5,17,0.00,0,,196
2012-1-11,47,38,28,35,30,25,85,67,49,29.85,29.66,29.49,10,10,8,9,5,10,T,3,,91
2012-1-12,40,29,18,36,26,13,92,84,76,29.48,29.42,29.35,10,4,0,26,12,32,0.16,8,Fog-Rain-Snow,224
2012-1-13,29,24,18,27,18,12,92,85,77,30.05,29.72,29.38,7,2,0,26,17,36,0.42,8,Fog-Snow,246
2012-1-14,19,13,6,13,9,1,83,72,61,30.29,30.14,30.04,10,8,2,16,7,20,T,6,Snow,224
2012-1-15,25,14,3,15,7,-1,92,69,46,30.46,30.35,30.19,10,8,5,18,9,24,0.00,2,,156
2012-1-16,45,34,23,42,31,16,89,76,62,30.13,29.87,29.71,10,8,0,18,11,23,0.03,5,Fog-Rain,178
2012-1-17,43,34,24,40,30,18,93,87,81,30.16,29.80,29.51,8,1,0,31,12,40,0.48,8,Fog-Rain-Snow,302
2012-1-18,25,22,18,16,13,10,80,73,65,30.32,30.19,29.98,10,10,6,21,10,26,T,4,Snow,212
2012-1-19,27,20,12,23,14,5,88,76,63,30.20,29.94,29.78,10,4,0,24,12,31,0.22,7,Fog-Snow,268
2012-1-20,16,12,7,10,8,3,88,78,67,30.28,30.15,30.05,10,4,0,14,7,18,0.17,7,Fog-Snow,97
2012-1-21,24,17,9,10,8,5,84,68,52,30.29,30.22,30.10,10,10,10,14,6,17,T,2,,64
2012-1-22,41,28,14,39,27,8,100,87,73,30.20,29.92,29.60,10,4,0,23,16,31,0.04,8,Fog-Rain,137
2012-1-23,47,39,31,45,38,21,100,83,66,29.91,29.56,29.42,10,7,0,36,18,45,0.48,8,Fog-Rain,201
2012-1-24,34,29,23,25,22,20,88,77,66,30.38,30.18,29.93,10,10,8,21,10,25,0.00,7,,265
2012-1-25,32,28,23,27,24,19,88,80,72,30.38,30.28,30.11,8,6,4,16,5,21,0.00,5,,125
2012-1-26,36,33,30,33,30,27,96,89,82,30.10,29.81,29.61,6,3,2,12,5,15,0.29,7,Rain,58
2012-1-27,40,37,33,34,29,22,100,76,52,30.00,29.79,29.59,10,7,0,22,10,31,T,6,Fog,279
2012-1-28,35,32,28,31,26,16,89,72,54,30.14,29.92,29.79,10,5,2,28,16,39,0.11,6,Rain-Snow,236
2012-1-29,31,25,19,27,22,12,85,74,62,30.27,30.04,29.94,10,6,0,28,12,37,0.06,7,Fog-Snow,252
2012-1-30,49,32,15,34,25,11,84,67,50,30.27,30.05,29.88,10,10,10,24,15,33,0.00,4,,186
2012-1-31,56,51,45,47,40,33,83,67,50,29.94,29.89,29.83,10,10,8,29,17,37,0.02,4,Rain,213